Location: Emblem
(62.4273°N, 6.4710°E)
Time: 19:45:30
(UTC+01:00)

Altair - Visible Passes

Search period start: 07 February 2023 00:00
Search period end: 17 February 2023 00:00
Orbit: 1501 x 1683 km, 47.2° (Epoch: 06 February)

Date Brightness Start Highest point End Pass type
(mag) Time Alt. Az. Time Alt. Az. Time Alt. Az.
07 Feb 9.0 18:12:41 10° S 18:18:25 18° SE 18:24:13 10° ESE visible
07 Feb 8.4 20:12:35 10° SW 20:20:34 30° SSE 20:22:37 28° SE visible
07 Feb 8.6 22:14:59 10° WSW 22:20:39 29° SW 22:20:39 29° SW visible
08 Feb 9.6 00:18:40 10° WSW 00:18:40 10° WSW 00:18:40 10° WSW visible
08 Feb 9.1 17:48:05 10° S 17:53:25 16° SE 17:58:51 10° ESE visible
08 Feb 8.5 19:47:38 10° SW 19:55:31 29° SSE 19:58:54 24° SE visible
08 Feb 8.4 21:49:54 10° WSW 21:56:56 32° SSW 21:56:56 32° SSW visible
08 Feb 9.4 23:53:30 10° WSW 23:54:57 14° WSW 23:54:57 14° WSW visible
09 Feb 8.5 19:22:42 10° SSW 19:30:28 29° SSE 19:35:10 20° ESE visible
09 Feb 8.3 21:24:51 10° WSW 21:33:10 33° S 21:33:11 33° S visible
09 Feb 9.1 23:28:20 10° WSW 23:31:12 18° WSW 23:31:12 18° WSW visible
10 Feb 8.6 18:57:47 10° SSW 19:05:25 28° SSE 19:11:24 15° ESE visible
10 Feb 8.3 20:59:48 10° WSW 21:08:05 33° S 21:09:26 32° SSE visible
10 Feb 8.9 23:03:11 10° WSW 23:07:27 22° SW 23:07:27 22° SW visible
11 Feb 8.7 18:32:53 10° SSW 18:40:23 27° SSE 18:47:38 11° ESE visible
11 Feb 8.3 20:34:45 10° WSW 20:43:01 33° S 20:45:40 29° SSE visible
11 Feb 8.8 22:38:03 10° WSW 22:43:41 25° SW 22:43:41 25° SW visible
12 Feb 8.7 18:07:59 10° SSW 18:15:21 26° SSE 18:22:55 10° ESE visible
12 Feb 8.4 20:09:43 10° WSW 20:17:57 33° S 20:21:54 25° SE visible
12 Feb 8.6 22:12:55 10° WSW 22:19:55 27° SSW 22:19:55 27° SSW visible
13 Feb 8.8 17:43:07 10° SSW 17:50:19 25° SSE 17:57:43 10° ESE visible
13 Feb 8.5 19:44:41 10° SW 19:52:52 33° S 19:58:07 20° SE visible
13 Feb 8.5 21:47:48 10° WSW 21:55:34 28° SSW 21:56:08 28° SSW visible
13 Feb 9.4 23:52:46 10° WSW 23:54:10 12° WSW 23:54:10 12° WSW visible
14 Feb 8.5 19:19:40 10° SW 19:27:48 33° S 19:34:22 16° SE visible
14 Feb 8.5 21:22:41 10° WSW 21:30:31 29° SSW 21:32:23 27° S visible
14 Feb 9.3 23:27:24 10° WSW 23:30:24 15° WSW 23:30:24 15° WSW visible
15 Feb 8.6 18:54:39 10° SW 19:02:44 32° S 19:10:37 11° ESE visible
15 Feb 8.6 20:57:35 10° WSW 21:05:27 29° SSW 21:08:38 25° S visible
15 Feb 9.1 23:02:04 10° WSW 23:06:39 17° SW 23:06:39 17° SW visible
16 Feb 8.6 18:29:39 10° SW 18:37:41 32° S 18:45:57 10° ESE visible
16 Feb 8.6 20:32:29 10° WSW 20:40:24 30° SSW 20:44:55 21° SSE visible
16 Feb 9.1 22:36:47 10° WSW 22:42:39 18° SW 22:42:56 18° SW visible
